GPS BIIR-08 1 27663U 03005A 26253.65277778 -.00000016 00000+0 00000+0 0 9995 2 27663 54.8693 211.5756 0150276 53.5941 155.2822 2.00556038173023 GPS BIIR-11 1 28190U 04009A 26253.16627796 -.00000004 00000+0 00000+0 0 9998 2 28190 54.7644 272.2463 0117971 176.3612 194.3615 2.00573805164651 GPS BIIR-13 1 28474U 04045A 26253.64583332 -.00000077 00000+0 00000+0 0 9993 2 28474 55.0802 321.4498 0172025 318.4634 102.9881 2.00559758160146 GPS BIIR-14M 1 28874U 05038A 26253.18284978 -.00000003 00000+0 00000+0 0 9992 2 28874 54.8145 269.7399 0128742 297.4240 115.2238 2.00559792153544 METEOSAT-9 (MSG-2) 1 28912U 05049B 26253.71383772 .00000110 00000+0 00000+0 0 9996 2 28912 9.5515 53.2977 0001812 346.3434 252.7717 1.00272765 7852 GPS BIIR-16M 1 29601U 06052A 26253.17790896 -.00000017 00000+0 00000+0 0 9993 2 29601 54.9243 210.6395 0085372 91.1273 269.8119 2.00562734145118 GPS BIIR-17M 1 32260U 07047A 26253.48604148 .00000000 00000+0 00000+0 0 9992 2 32260 54.1632 76.5515 0169005 89.3919 272.6036 2.00551744138528 GPS BIIR-18M 1 32384U 07062A 26253.65277778 -.00000008 00000+0 00000+0 0 9999 2 32384 54.9689 270.7098 0035988 170.1009 80.3142 2.00565214137225 GOES 14 1 35491U 09033A 26253.84975317 -.00000166 00000+0 00000+0 0 9991 2 35491 1.9052 81.8379 0002127 91.4773 208.4903 1.00071719 7447 GOES 15 1 36411U 10008A 26253.02583803 .00000002 00000+0 00000+0 0 9991 2 36411 1.5067 81.8636 0005150 80.2883 259.5345 1.00271079 60486 GSAT0101 (GALILEO-PFM) 1 37846U 11060A 26245.27765018 -.00000080 00000+0 00000+0 0 9998 2 37846 56.9635 339.6718 0000481 63.0846 296.9646 1.70475552 92437 GSAT0102 (GALILEO-FM2) 1 37847U 11060B 26246.42885211 -.00000084 00000+0 00000+0 0 9999 2 37847 56.9635 339.6410 0001594 329.3167 62.9507 1.70475714 92467 LUCH 5A 1 37951U 11074B 26253.77829247 -.00000064 00000+0 00000+0 0 9991 2 37951 8.9655 72.5291 0003892 120.7387 243.6619 1.00272327 53919 METEOSAT-10 (MSG-3) 1 38552U 12035B 26253.79737332 -.00000023 00000+0 00000+0 0 9997 2 38552 4.8703 60.5400 0000835 109.5262 106.8959 1.00270205 51712 SARSAT 13 (METOP-B) 1 38771U 12049A 26253.78450831 .00000057 00000+0 45611-4 0 9998 2 38771 98.6424 303.5424 0003464 98.1771 261.9800 14.21458227725424 GPS BIIF-3 1 38833U 12053A 26253.57255317 .00000012 00000+0 00000+0 0 9990 2 38833 53.5960 140.0989 0185364 67.3088 294.7157 2.00557161101155 GSAT0103 (GALILEO-FM3) 1 38857U 12055A 26251.77119174 .00000021 00000+0 00000+0 0 9998 2 38857 55.8578 99.2503 0002128 316.1154 43.9644 1.70473418 86439 GPS BIIF-4 1 39166U 13023A 26253.93870360 -.00000008 00000+0 00000+0 0 9995 2 39166 54.4436 265.4738 0142242 51.1420 310.1467 2.00563471 97608 INSAT-3D 1 39216U 13038B 26253.82302677 -.00000356 00000+0 00000+0 0 9992 2 39216 2.1410 81.3668 0001319 113.5403 220.7506 1.00273442 47932 GPS BIIF-5 1 39533U 14008A 26253.44183594 .00000006 00000+0 00000+0 0 9996 2 39533 53.6621 145.8404 0083589 231.5612 127.7498 2.00565305 91393 LUCH 5V 1 39727U 14023A 26253.88740177 -.00000284 00000+0 00000+0 0 9991 2 39727 5.3416 68.8028 0002725 139.3528 195.9782 1.00271175 45215 GPS BIIF-6 1 39741U 14026A 26253.22199381 -.00000084 00000+0 00000+0 0 9991 2 39741 56.4503 328.2046 0039221 324.2313 35.5658 2.00554955 90241 GPS BIIF-7 1 40105U 14045A 26253.31177198 .00000017 00000+0 00000+0 0 9995 2 40105 55.4137 85.0736 0036289 119.8112 240.6211 2.00564127 87780 GSAT0201 (GALILEO 5) 1 40128U 14050A 26249.80368311 .00000019 00000+0 00000+0 0 9996 2 40128 48.7898 270.0811 1685582 182.5488 176.4959 1.85519498 79839 GSAT0202 (GALILEO 6) 1 40129U 14050B 26251.13689248 .00000006 00000+0 00000+0 0 9997 2 40129 48.8056 269.1127 1687306 183.3089 175.4368 1.85520192 82029 GPS BIIF-8 1 40294U 14068A 26253.68110867 -.00000088 00000+0 00000+0 0 9998 2 40294 57.0436 27.6685 0067108 73.7543 286.9780 2.00556937 86923 GLONASS-K 2 1 40315U 14075A 26249.01325971 .00000003 00000+0 00000+0 0 9992 2 40315 63.6175 187.5753 0022218 210.7537 149.1087 2.13101324 91578 GPS BIIF-9 1 40534U 15013A 26253.81668150 -.00000019 00000+0 00000+0 0 9998 2 40534 53.1574 200.6387 0112770 41.0536 319.7528 2.00571178 83542 GSAT0203 (GALILEO 7) 1 40544U 15017A 26252.09412080 -.00000100 00000+0 00000+0 0 9992 2 40544 56.7527 339.3092 0004460 251.6359 108.3566 1.70476378 70633 GSAT0204 (GALILEO 8) 1 40545U 15017B 26247.07091416 -.00000086 00000+0 00000+0 0 9994 2 40545 56.7614 339.4656 0004605 239.5391 120.4567 1.70475680 33595 GPS BIIF-10 1 40730U 15033A 26252.98316387 .00000000 00000+0 00000+0 0 9996 2 40730 53.9230 263.5841 0117042 30.5039 330.2007 2.00551764 81691 METEOSAT-11 (MSG-4) 1 40732U 15034A 26253.79919333 .00000045 00000+0 00000+0 0 9998 2 40732 3.4102 70.4903 0000669 68.0705 148.2173 1.00271795 8071 GSAT0206 (GALILEO 10) 1 40890U 15045B 26252.92525907 -.00000001 00000+0 00000+0 0 9992 2 40890 54.9260 219.2653 0002522 348.1921 11.7509 1.70473100 68488 GPS BIIF-11 1 41019U 15062A 26253.53350991 -.00000087 00000+0 00000+0 0 9996 2 41019 57.0145 27.5305 0115686 231.0302 127.9329 2.00567106 79544 ELEKTRO-L 2 1 41105U 15074A 26253.79442666 -.00000132 00000+0 00000+0 0 9995 2 41105 6.9039 69.4363 0001897 194.2342 357.6251 1.00271894 39363 GSAT0209 (GALILEO 12) 1 41174U 15079A 26241.94886513 .00000032 00000+0 00000+0 0 9991 2 41174 55.8723 99.2373 0003740 13.7105 346.4072 1.70473774 66034 GSAT0208 (GALILEO 11) 1 41175U 15079B 26250.38144125 .00000018 00000+0 00000+0 0 9990 2 41175 55.8769 99.0024 0003761 25.5767 334.5348 1.70473633 66593 GPS BIIF-12 1 41328U 16007A 26253.62240941 .00000016 00000+0 00000+0 0 9993 2 41328 55.5821 86.0722 0097483 247.3116 111.7238 2.00573142 77557 GSAT0211 (GALILEO 14) 1 41549U 16030A 26252.85098837 -.00000001 00000+0 00000+0 0 9998 2 41549 55.0765 219.3671 0003767 331.5175 28.4112 1.70473093 64114 GSAT0210 (GALILEO 13) 1 41550U 16030B 26252.52153565 .00000001 00000+0 00000+0 0 9993 2 41550 55.0761 219.3742 0004133 253.0697 106.8359 1.70473556 64103 INSAT-3DR 1 41752U 16054A 26253.86225315 -.00000096 00000+0 00000+0 0 9999 2 41752 0.0221 112.2476 0011720 152.6587 109.4116 1.00272269 36677 GSAT0207 (GALILEO 15) 1 41859U 16069A 26251.04083436 .00000019 00000+0 00000+0 0 9991 2 41859 55.5509 98.7920 0003186 357.9968 2.0965 1.70473742 60810 GSAT0212 (GALILEO 16) 1 41860U 16069B 26253.24052515 .00000019 00000+0 00000+0 0 9991 2 41860 55.5502 98.7259 0003965 39.3601 320.7650 1.70473888 61105 GSAT0213 (GALILEO 17) 1 41861U 16069C 26251.84779498 .00000021 00000+0 00000+0 0 9995 2 41861 55.5520 98.7726 0002168 331.3762 28.7083 1.70474341 60943 GSAT0214 (GALILEO 18) 1 41862U 16069D 26253.16735567 .00000020 00000+0 00000+0 0 9991 2 41862 55.5429 98.7287 0002373 358.3065 1.7890 1.70474047 61094 GOES 16 1 41866U 16071A 26253.57197535 -.00000110 00000+0 00000+0 0 9991 2 41866 0.5463 84.6078 0001718 132.4706 233.7607 1.00272258 35966 GSAT-17 1 42815U 17040B 26253.78030811 -.00000277 00000+0 00000+0 0 9993 2 42815 0.0193 186.3336 0003998 66.3703 111.5205 1.00270600 33646 GSAT0215 (GALILEO 19) 1 43055U 17079A 26253.06977737 -.00000002 00000+0 00000+0 0 9996 2 43055 55.0545 219.1717 0003378 280.8591 79.0513 1.70473858 54439 GSAT0216 (GALILEO 20) 1 43056U 17079B 26252.18771698 .00000002 00000+0 00000+0 0 9996 2 43056 55.0552 219.1960 0004674 287.5651 72.3363 1.70473970 54433 GSAT0217 (GALILEO 21) 1 43057U 17079C 26252.99512080 -.00000001 00000+0 00000+0 0 9994 2 43057 55.0527 219.1714 0004084 302.3828 57.5263 1.70473944 54435 GSAT0218 (GALILEO 22) 1 43058U 17079D 26252.62861756 .00000000 00000+0 00000+0 0 9990 2 43058 55.0533 219.1792 0005102 283.6575 76.2358 1.70473915 54454 GOES 17 1 43226U 18022A 26253.49454946 -.00000202 00000+0 00000+0 0 9996 2 43226 1.1510 84.2746 0000860 133.1662 220.6303 1.00272507 31277 GSAT0221 (GALILEO 25) 1 43564U 18060A 26253.11958899 -.00000101 00000+0 00000+0 0 9996 2 43564 57.1351 339.4875 0004384 269.9725 90.0208 1.70476218 50611 GSAT0222 (GALILEO 26) 1 43565U 18060B 26249.23326964 -.00000093 00000+0 00000+0 0 9997 2 43565 57.1403 339.5966 0004580 241.9595 118.0319 1.70475955 50593 GSAT0219 (GALILEO 23) 1 43566U 18060C 26242.41507177 -.00000076 00000+0 00000+0 0 9999 2 43566 57.1426 339.7826 0003514 273.9182 86.0846 1.70476242 50453 GSAT0220 (GALILEO 24) 1 43567U 18060D 26253.19462196 -.00000101 00000+0 00000+0 0 9997 2 43567 57.1370 339.4905 0003678 268.4040 91.5976 1.70475942 50620 BEIDOU-3 M13 1 43622U 18072A 26251.22696578 -.00000006 00000+0 00000+0 0 9991 2 43622 56.7008 59.9237 0004334 331.9941 28.0184 1.86230884 54208 BEIDOU-3 M14 1 43623U 18072B 26251.62933774 -.00000009 00000+0 00000+0 0 9991 2 43623 56.7030 59.9048 0003969 24.8095 335.2440 1.86230882 54201 GPS BIII-1 1 43873U 18109A 26253.65972221 .00000019 00000+0 00000+0 0 9994 2 43873 55.7385 88.8145 0039985 196.1078 83.0813 2.00565254 56788 METEOR-M2 2 1 44387U 19038A 26253.80390413 .00000132 00000+0 76786-4 0 9996 2 44387 98.9231 242.3884 0002148 107.1071 253.0342 14.24385315373483 GPS BIII-2 1 44506U 19056A 26253.40900906 -.00000085 00000+0 00000+0 0 9998 2 44506 55.5893 327.7525 0065766 199.8938 163.8410 2.00571097 51789 BEIDOU-3 M24 1 44542U 19061A 26253.08125854 -.00000024 00000+0 00000+0 0 9992 2 44542 54.3942 179.8664 0009173 11.0844 348.9243 1.86229234 47378 BEIDOU-3 M23 1 44543U 19061B 26252.94896436 -.00000025 00000+0 00000+0 0 9999 2 44543 54.3922 179.8392 0006045 0.0640 182.3042 1.86227678 47379 BEIDOU-3 M22 1 44793U 19078A 26251.31139781 -.00000026 00000+0 00000+0 0 9998 2 44793 53.8578 296.8972 0004882 44.1997 315.9124 1.86227132 46191 BEIDOU-3 M21 1 44794U 19078B 26253.06198582 -.00000039 00000+0 00000+0 0 9991 2 44794 53.8293 296.7945 0002723 34.4802 325.6087 1.86227582 46234 ELEKTRO-L 3 1 44903U 19095A 26253.38474233 -.00000115 00000+0 00000+0 0 9992 2 44903 0.4704 82.4109 0001222 76.1930 45.2369 1.00270492 24565 GPS BIII-3 1 45854U 20041A 26253.65972221 -.00000091 00000+0 00000+0 0 9994 2 45854 56.7228 25.6339 0068164 205.6032 273.3899 2.00556911 45750 COSMOS 2547 1 46805U 20075A 26252.41210524 -.00000019 00000+0 00000+0 0 9992 2 46805 64.6012 189.6661 0008619 236.7912 123.1090 2.13099693 45709 GPS BIII-4 1 46826U 20078A 26253.80379933 -.00000017 00000+0 00000+0 0 9990 2 46826 53.9685 207.3087 0076055 208.4405 354.1600 2.00565029 43226 GSAT0223 (GALILEO 27) 1 49809U 21116A 26251.38578007 -.00000099 00000+0 00000+0 0 9992 2 49809 57.1270 339.4281 0003955 220.3982 200.3753 1.70476049 29607 GSAT0224 (GALILEO 28) 1 49810U 21116B 26252.35932649 -.00000100 00000+0 00000+0 0 9991 2 49810 57.1274 339.4008 0003174 212.6566 198.2521 1.70476208 29644 GOES 18 1 51850U 22021A 26253.77015990 .00000077 00000+0 00000+0 0 9994 2 51850 0.0433 315.9499 0000559 277.5759 256.5352 1.00272637 7454 COSMOS 2557 (706K) 1 52984U 22075A 26251.16798359 -.00000029 00000+0 00000+0 0 9998 2 52984 64.2448 311.5592 0012372 269.1505 90.7826 2.13102143 32483 METEOSAT-12 (MTG-I1) 1 54743U 22170C 26253.82822387 -.00000027 00000+0 00000+0 0 9991 2 54743 0.7759 25.9184 0003703 87.4640 174.1819 1.00270623 13831 METEOR-M2 3 1 57166U 23091A 26253.88851778 -.00000007 00000+0 15843-4 0 9992 2 57166 98.6003 307.0777 0002808 285.1016 74.9852 14.24052258166714 COSMOS 2569 (703K) 1 57517U 23114A 26250.84287354 .00000038 00000+0 00000+0 0 9991 2 57517 65.3539 69.8354 0008580 290.0904 69.8691 2.13102460 24024 METEOR-M2 4 1 59051U 24039A 26253.78937501 -.00000013 00000+0 13857-4 0 9998 2 59051 98.7106 212.0465 0005970 286.0191 74.0329 14.22437077131435 GSAT0225 (GALILEO 29) 1 59598U 24079A 26252.58030977 .00000019 00000+0 00000+0 0 9992 2 59598 55.1738 98.7200 0001346 118.2789 61.3924 1.70473934 14753 GSAT0227 (GALILEO 30) 1 59600U 24079C 26251.88459502 .00000019 00000+0 00000+0 0 9997 2 59600 55.1684 98.7378 0004107 91.4385 268.7048 1.70474074 14795 GSAT0232 (GALILEO 32) 1 61182U 24167A 26250.67496997 .00000016 00000+0 00000+0 0 9995 2 61182 55.1671 219.0516 0005794 235.2321 318.1463 1.70473446 12287 GSAT0226 (GALILEO 31) 1 61183U 24167B 26252.22611056 .00000002 00000+0 00000+0 0 9999 2 61183 55.1654 219.0162 0002590 246.0412 270.6367 1.70473510 12285 GSAT0233 (GALILEO 33) 1 67160U 25302A 26252.10044588 .00000017 00000+0 00000+0 0 9995 2 67160 54.3898 99.7385 0002739 136.3104 39.8659 1.70473962 4552 GSAT0234 (GALILEO 34) 1 67162U 25302C 26252.62281788 .00000017 00000+0 00000+0 0 9999 2 67162 54.3915 99.7228 0000574 31.0236 285.8443 1.70473987 4610